Regional Weather Roundup
Issued by NWS Jackson, KY

Home | Current Version | Previous Version | Text Only | Print | Product List | Glossary Off
Versions: 1 2 3 4 5 6 7 8 9 10 11 12 13 14 15 16 17 18 19 20 21 22 23 24 25 26 27 28 29 30 31 32 33 34 35 36 37 38 39 40 41 42 43 44 45 46 47 48 49 50

000
ASUS43 KJKL 170711
RWRJKL

EAST KENTUCKY HOURLY WEATHER ROUNDUP
NATIONAL WEATHER SERVICE JACKSON KY
300 AM EDT THU APR 17 2014

NOTE: "FAIR" INDICATES FEW OR NO CLOUDS BELOW 12,000 FEET WITH
NO SIGNIFICANT WEATHER AND/OR OBSTRUCTIONS TO VISIBILITY.

* THESE REPORTS ARE NOT UNDER NWS QUALITY CONTROL AND MAY NOT
  REPORT WEATHER SUCH AS PRECIPITATION AND FOG.

KYZ079-080-083-085-087-088-110-112-115-119-120-170800
...EASTERN KENTUCKY...

CITY           SKY/WX    TMP DP  RH WIND       PRES   REMARKS
JACKSON        CLEAR     43  19  38 CALM      30.29R
LONDON         CLEAR     36  30  79 CALM      30.29R
SOMERSET*      PTCLDY    39  30  70 S3        30.30R
MONTICELLO*    CLEAR     38  29  70 W6        30.30S WCI  33
WILLIAMSBURG*  CLEAR     34  32  93 CALM      30.31R
MIDDLESBORO*   CLEAR     34  31  89 CALM      30.33R
HARLAN APT*    SUNNY     46  19  34 S5        30.32R
BLACK MTN*       N/A     34  19  55 S6          N/A  WCI  29
PIKEVILLE APT* CLEAR     45  19  36 SE7       30.31R
BIG SANDY*     SUNNY     46  23  39 SE7       30.31R
MOREHEAD APT*  MOSUNNY   43  19  39 SE5       30.30S
$$

KYZ035-036-041-042-044-050-067-078-099-170800
...CENTRAL KENTUCKY...

CITY           SKY/WX    TMP DP  RH WIND       PRES   REMARKS
MT STERLING*   PTCLDY    41  23  48 SE5       30.29S
FLEMING/MASON* CLEAR     37  23  56 E7        30.29S WCI  32
DANVILLE*      PTCLDY    36  32  87 CALM      30.27F
LEXINGTON      PTCLDY    44  23  43 SE7       30.26S
FRANKFORT      CLEAR     39  25  57 E6        30.24F WCI  35
$$

KYZ091>093-OHZ055-061-077-WVZ005-015-034-035-042-170800
...SOUTHERN OHIO/WEST VIRGINIA...

CITY           SKY/WX    TMP DP  RH WIND       PRES   REMARKS
COVINGTON      MOCLDY    41  23  48 E7        30.25F
COLUMBUS       PTCLDY    40  19  43 E9        30.30F WCI  34
DAYTON         PTCLDY    39  23  52 SE13      30.27F WCI  31
WILMINGTON     CLEAR     34  24  67 E5        30.26F WCI  30
HUNTINGTON     CLEAR     38  22  52 E6        30.30S WCI  33
CHARLESTON     CLEAR     44  22  41 SE3       30.33R
PINEVILLE*     CLEAR     40  29  64 MISG      30.42R
BECKLEY        CLEAR     37  18  46 SE14G23   30.36R WCI  28
BLUEFIELD      CLEAR     38  18  44 SE8G18    30.37R WCI  32
$$

VAZ002-007-008-TNZ017-027-036-066-071-170800
...SOUTHWEST VIRGINIA/EAST TENNESSEE...

CITY           SKY/WX    TMP DP  RH WIND       PRES   REMARKS
WISE*          CLEAR     41  18  38 S10G17    30.33R
ABINGDON*      CLEAR     41  21  44 E10       30.36R
BRISTOL        CLEAR     45  19  35 E8        30.35R
KNOXVILLE      CLEAR     35  32  88 NE6       30.31R WCI  30
OAK RIDGE      CLEAR     40  32  73 CALM      30.33R
CROSSVILLE     CLEAR     44  26  49 CALM      30.30R
NASHVILLE      MOCLDY    44  35  70 S3        30.25S
$$

...KEY TO REMARKS...
VSB - VISIBILITY IN MILES
WCI - WIND CHILL INDEX
HX  - HEAT INDEX

$$



USA.gov is the U.S. government's official web portal to all federal, state and local government web resources and services.